This is the latest recevied weather packets stored in our database for station/object IW9CSJ-13. If no packets are shown the sender has not sent any weather packets the latest 10 day(s).
| Time | Temp. | Humidity | Pressure | Rain* | Wind** | Luminosity | Snow |
|---|---|---|---|---|---|---|---|
| 1778095225 | 15° C | 88% | 1013.6 hPa | 0 mm | - | - | - |
| 1778084427 | 16.67° C | 86% | 1013.1 hPa | 0 mm | - | - | - |
| 1778083818 | 16.67° C | 86% | 1013.2 hPa | 0 mm | - | - | - |
| 1778083226 | 16.11° C | 87% | 1013.4 hPa | 0 mm | - | - | - |
| 1778080843 | 16.11° C | 86% | 1013.5 hPa | 0 mm | - | - | - |
| 1778079620 | 16.11° C | 87% | 1013.5 hPa | 0 mm | - | - | - |
| 1778077817 | 16.11° C | 86% | 1013.1 hPa | 0 mm | - | - | - |
| 1778072419 | 16.67° C | 85% | 1013.6 hPa | 0 mm | - | - | - |
| 1778071520 | 16.67° C | 86% | 1013.7 hPa | 0 mm | - | - | - |
| 1778071223 | 16.67° C | 85% | 1013.8 hPa | 0 mm | - | - | - |
| 1778070066 | 17.22° C | 84% | 1013.9 hPa | 0 mm | - | - | - |
| 1778067319 | 16.67° C | 87% | 1014 hPa | 0 mm | - | - | - |
| 1778066718 | 16.67° C | 87% | 1014.1 hPa | 0 mm | - | - | - |
| 1778065520 | 16.67° C | 87% | 1014.1 hPa | 0 mm | - | - | - |
| 1778065215 | 16.67° C | 87% | 1014.3 hPa | 0 mm | - | - | - |
| 1778064643 | 16.67° C | 88% | 1014.3 hPa | 0 mm | - | - | - |
| 1778061918 | 16.67° C | 89% | 1014.5 hPa | 0 mm | - | - | - |
| 1778060443 | 15.56° C | 89% | 1014.6 hPa | 0 mm | - | - | - |
| 1778060140 | 15.56° C | 88% | 1014.7 hPa | 0 mm | - | - | - |
| 1778055319 | 16.11° C | 88% | 1014.3 hPa | 0 mm | - | - | - |
| 1778054739 | 16.11° C | 87% | 1014.5 hPa | 0 mm | - | - | - |
| 1778054122 | 16.11° C | 87% | 1014.2 hPa | 0 mm | - | - | - |
| 1778053219 | 16.11° C | 86% | 1014.3 hPa | 0 mm | - | - | - |
| 1778051743 | 16.11° C | 85% | 1014.4 hPa | 0 mm | - | - | - |
| 1778046058 | 15.56° C | 86% | 1013.9 hPa | 0 mm | - | - | - |
* Rain latest hour (hover to see other rain measurements)
** Current wind speed in m/s (hover to see current wind gust speed)